Dewpoint
39 40 39 38 39 40 40 41 43 45 46 46 45 44 42 41 41 40 40 39 39 39
38 38 39 39 40 41 42 44 45 46 45 45 44 44 44 43 42 41 41 41 40 40
38 38 38 40 40 42 43 44 45 45 44 43 42 42 43 43 42 42 42 42 41 41
39 40 40 40 41 42 43 44 44 43 43 42 42 42 41 41 41 41 41 41 41 41
40 41 41 41 42 43 43 44 43 42 42 42 42 42 42 41 41 41 40 40 40 40
41 41 41 41 42 43 43 42 42 41 41 42 42 41 41 41 40 40 40 39 39 39
40 40 41 41 42 42 41 41 40 41 42 42 41 40 40 39 39 39 39 39 39 39
40 41 41 41 41 41 41 40 41 40 39 39 39 38 38 39 38 38 38 39 39 40
39 40 41 40 40 40 41 41 40 40 40 39 38 45 48 41 38 38 39 39 40 40
39 39 40 40 41 40 41 41 41 41 40 40 40 47 49 51 43 42 41 41 40 40
38 38 39 40 40 40 41 41 41 41 41 41 41 48 50 50 45 42 41 41 40 40
37 38 39 40 40 41 41 41 41 41 42 42 43 49 50 48 42 41 40 40 41 40
37 37 38 39 40 41 41 41 42 42 43 45 42 47 50 47 42 40 38 39 39 43
38 37 37 39 41 41 41 42 42 43 43 43 43 43 49 49 41 39 38 38 39 40
Lifted_Index
13 13 13 13 12 11 10 10 10 11 11 11 12 12 12 12 13 13 13 13 14 14
13 13 13 13 12 11 10 10 10 10 11 11 12 12 12 12 13 13 13 13 13 13
13 13 13 13 12 10 9 9 9 10 11 11 12 12 12 12 13 13 13 13 13 13
13 13 13 12 11 10 9 9 9 9 10 10 11 11 12 12 12 13 13 13 14 14
13 13 12 12 11 10 9 9 9 9 9 9 10 10 11 11 12 13 13 14 14 14
12 12 11 11 10 9 9 9 9 9 9 9 9 9 10 10 11 12 13 14 14 14
11 11 11 11 10 9 9 9 9 9 9 9 9 9 9 10 11 12 13 14 14 15
11 11 11 11 10 9 9 8 8 8 9 9 9 9 9 9 10 12 13 14 14 15
11 10 10 10 10 9 9 8 8 8 8 9 9 9 8 9 10 11 12 13 14 14
10 10 9 9 9 9 9 8 8 8 8 9 9 9 8 9 9 10 12 13 14 14
9 9 9 9 9 8 8 8 8 8 8 9 9 9 8 8 9 10 12 13 14 14
8 8 8 8 8 8 8 8 8 8 8 9 9 9 8 8 9 10 11 13 14 14
9 9 8 8 8 8 8 8 8 8 8 9 9 9 8 8 8 9 11 13 14 14
9 9 9 9 8 9 9 8 8 8 8 9 9 9 8 8 8 9 11 12 14 14